Time,B instrument,Bx,By,Bz,sigma B,Ion instrument,Status,Tp_par,Tp_perp,carrot,r_sun,clat,clong,earth_he_angle,n_p,vp_x,vp_y,vp_z,vth_p_par,vth_p_perp
1981-05-30 00:00:32,1,7.21429,-10.6714,-7.25714,3.28373,1,1,158339.0,122564.0,1709,0.42879242,-7.0418425,279.47266,290.3125,57.8813,303.018,32.1464,4.69704,51.1271,44.982
1981-05-30 00:01:53,1,7.73333,-17.4333,1.53333,1.50333,1,1,160569.0,123143.0,1709,0.42878354,-7.041769,279.46265,290.31421,58.0553,313.517,31.2431,1.6102,51.4859,45.0881
1981-05-30 00:03:14,1,0.85,-17.4167,4.8,1.23716,1,1,143318.0,187815.0,1709,0.42876571,-7.0416231,279.45483,290.31812,60.9683,328.56,0.485152,-16.8274,48.6416,55.6831
1981-05-30 00:04:35,1,-7.21429,-4.75714,12.1286,7.24904,1,1,143919.0,127447.0,1709,0.42875677,-7.0415497,279.44507,290.32007,60.2512,318.005,29.6437,-8.71029,48.7435,45.8694
1981-05-30 00:05:56,1,-1.54286,-17.3857,7.32857,1.83615,1,1,150572.0,134280.0,1709,0.42874789,-7.0414772,279.43506,290.32178,61.2125,319.217,28.0286,-12.9459,49.8574,47.0829
1981-05-30 00:07:17,1,-3.1,-15.45,10.7833,1.42731,1,1,178812.0,122612.0,1709,0.42873001,-7.0413313,279.42725,290.32568,61.0086,326.937,20.4714,-16.4365,54.3321,44.991
1981-05-30 00:08:38,1,-4.85714,-13.6286,11.3714,1.76335,1,1,150645.0,129914.0,1709,0.42872113,-7.0412579,279.41357,290.32764,62.1876,322.709,32.6745,-6.0618,49.8695,46.3112
1981-05-30 00:09:59,1,-3.46667,-16.5333,8.26667,1.79444,1,1,176111.0,118680.0,1709,0.42871219,-7.0411854,279.40356,290.32935,60.6137,321.065,30.3609,-3.27526,53.9202,44.2635
1981-05-30 00:11:20,1,-4.3,-17.6571,4.98571,1.71155,1,1,173266.0,132014.0,1709,0.42869437,-7.0410395,279.39575,290.33325,66.8778,303.962,20.3337,-14.5278,53.4829,46.684
1981-05-30 00:12:41,1,3.72857,-15.3286,7.81429,5.08804,1,1,169607.0,125763.0,1709,0.42868543,-7.040966,279.38599,290.33521,64.6772,310.64,32.6945,5.87013,52.9151,45.5653
1981-05-30 00:14:02,1,1.62857,-18.8286,2.21429,1.51078,1,1,188250.0,132767.0,1709,0.4286676,-7.0408201,279.37793,290.33887,68.6914,319.634,26.5989,-6.43178,55.7475,46.8169
1981-05-30 00:15:23,-1,nan,nan,nan,nan,1,4,nan,nan,1709,0.42865872,-7.0407476,279.36426,290.34082,nan,nan,nan,nan,nan,nan
1981-05-30 00:16:44,1,17.45,0.233333,5.21667,3.50515,1,1,194856.0,112989.0,1709,0.42864978,-7.0406742,279.35449,290.34277,79.7888,275.828,-7.20514,-3.24246,56.7172,43.1892
1981-05-30 00:18:05,1,20.5333,0.4,6.4,0.414997,1,1,124579.0,112046.0,1709,0.42863196,-7.0405283,279.34644,290.34644,66.7275,281.802,-9.15495,-4.1764,45.3503,43.0086
1981-05-30 00:19:26,1,20.5167,0.833333,7.43333,0.25,1,1,148690.0,114626.0,1709,0.42862302,-7.0404558,279.33667,290.34839,73.3931,277.372,-5.35128,-4.37812,49.5449,43.5009
1981-05-30 00:20:47,1,21.25,-1.38333,6.71667,0.426549,1,1,123642.0,115221.0,1709,0.42861414,-7.0403824,279.3269,290.35034,67.4103,281.053,-3.45131,-2.01333,45.1795,43.6137
1981-05-30 00:22:08,1,21.3167,-2.36667,6.03333,0.330404,1,1,149748.0,111862.0,1709,0.42859632,-7.0402365,279.31885,290.354,71.5093,278.647,-7.58966,1.93259,49.7208,42.9734
1981-05-30 00:23:29,1,21.6333,-2.26667,2.95,1.11965,1,1,117329.0,117830.0,1709,0.42858738,-7.040164,279.30518,290.35596,67.7244,277.491,2.12319,2.97826,44.0109,44.1047
1981-05-30 00:24:50,1,21.1667,-6.73333,2.73333,0.282843,1,1,198056.0,118488.0,1709,0.42857844,-7.0400906,279.29541,290.35791,83.1565,272.911,8.51542,3.80111,57.1811,44.2278
1981-05-30 00:26:11,1,20.2333,-9.58333,1.76667,0.281366,1,1,126500.0,112976.0,1709,0.42856061,-7.0399446,279.28735,290.36157,68.4104,278.258,3.76718,3.74432,45.6986,43.1868
1981-05-30 00:27:32,1,21.55,-5.78333,2.06667,0.340751,1,1,143072.0,119490.0,1709,0.42855173,-7.0398722,279.27759,290.36353,72.9705,273.989,-7.14648,8.57704,48.6,44.4143
1981-05-30 00:28:53,1,22.2333,-1.73333,-0.0833333,0.699405,1,1,128169.0,117670.0,1709,0.42854279,-7.0397987,279.26782,290.36548,68.5095,275.828,-2.9916,10.2398,45.9991,44.0748
1981-05-30 00:30:14,1,22.35,-3.06667,-1.48333,0.568135,1,1,142337.0,117731.0,1709,0.42852497,-7.0396528,279.25977,290.36914,72.0729,278.85,6.2969,11.2998,48.4749,44.0862
1981-05-30 00:31:35,1,21.2667,-8.56667,-2.36667,0.331662,1,1,127531.0,121400.0,1709,0.42851603,-7.0395803,279.24609,290.37109,71.9701,279.566,6.19791,11.3609,45.8845,44.768
1981-05-30 00:32:56,1,20.45,-10.05,-2.76667,0.922256,1,1,158522.0,113273.0,1709,0.42850715,-7.0395069,279.23633,290.37305,73.5129,284.001,15.7664,7.86549,51.1567,43.2436
1981-05-30 00:34:17,1,18.54,-13.46,-0.82,0.757892,1,1,121850.0,112699.0,1709,0.42848933,-7.039361,279.22827,290.37671,69.2561,286.355,13.8344,15.3794,44.8509,43.1338
1981-05-30 00:35:38,1,18.4,-12.8333,-4.93333,0.837324,1,1,162904.0,107370.0,1709,0.42848039,-7.0392876,279.21851,290.37866,74.4158,285.863,12.7306,18.575,51.859,42.1018
1981-05-30 00:36:59,1,18.06,-11.68,-8.48,0.36,1,1,146613.0,137962.0,1709,0.42847145,-7.0392151,279.20874,290.38062,78.5501,296.44,26.0133,-2.09632,49.1977,47.7241
1981-05-30 00:38:20,1,12.6,-16.1571,3.85714,1.20441,1,1,266158.0,115609.0,1709,0.42845362,-7.0390692,279.19678,290.38428,85.5323,296.432,24.3451,0.71356,66.2869,43.6872
1981-05-30 00:39:41,1,10.86,-17.32,2.2,0.509902,1,1,164307.0,120211.0,1709,0.42844474,-7.0389957,279.18701,290.38623,74.3461,291.886,23.1397,6.07811,52.0818,44.5483
1981-05-30 00:41:02,1,14.0143,-15.7857,0.514286,0.880399,1,1,148079.0,118512.0,1709,0.42842692,-7.0388498,279.17896,290.38989,73.753,301.334,31.1115,7.73465,49.443,44.2323
1981-05-30 00:42:23,1,7.93333,-20.2167,-0.5,0.557026,1,1,198728.0,102259.0,1709,0.42841798,-7.0387774,279.16919,290.39185,75.6767,302.775,24.1018,6.41337,57.2779,41.0873
1981-05-30 00:43:44,1,8.35,-19.1167,-1.38333,1.05132,1,1,185336.0,114652.0,1709,0.42840904,-7.0387039,279.15942,290.3938,75.3095,309.583,25.3726,-3.16358,55.3144,43.5059
1981-05-30 00:45:05,1,6.05714,-19.3857,3.45714,3.09568,1,1,181484.0,107163.0,1709,0.42839122,-7.038558,279.15137,290.39746,76.8906,312.304,26.6514,0.887682,54.7365,42.061
1981-05-30 00:46:26,1,2.4,-20.6667,3.28333,1.94857,1,1,180963.0,110613.0,1709,0.42838234,-7.0384855,279.1377,290.39941,77.1836,304.831,25.5903,2.02356,54.6579,42.7328
1981-05-30 00:47:47,1,9.61429,-19.0143,0.228571,1.62531,1,1,189846.0,113902.0,1709,0.4283734,-7.0384121,279.12793,290.40137,78.4516,303.596,27.297,7.25328,55.9834,43.3635
1981-05-30 00:49:08,1,7.63333,-19.5667,-2.0,1.89678,1,1,189120.0,111585.0,1709,0.42835557,-7.0382662,279.11987,290.40503,77.6994,302.791,26.75,9.19254,55.8762,42.9202
1981-05-30 00:50:29,1,8.4,-19.95,-3.25,0.767029,1,1,173819.0,109607.0,1709,0.42834663,-7.0381937,279.11011,290.40698,76.6862,308.311,26.2935,11.0696,53.5682,42.5381
1981-05-30 00:51:50,1,5.6,-20.55,-5.63333,0.362476,1,1,169267.0,102636.0,1709,0.42833775,-7.0381203,279.10034,290.40894,75.9423,307.876,26.7648,8.70545,52.8621,41.1632
1981-05-30 00:53:11,1,5.51667,-20.5667,-4.96667,0.33541,1,1,174844.0,107080.0,1709,0.42831993,-7.0379744,279.09229,290.4126,77.1569,307.66,23.845,18.0301,53.7259,42.0448
1981-05-30 00:54:32,1,6.13333,-18.9,-9.05,1.36799,1,1,154611.0,98521.8,1709,0.42831099,-7.0379019,279.07861,290.41455,81.7395,308.672,22.8977,19.3352,50.5218,40.3296
1981-05-30 00:55:53,1,6.23333,-19.3167,-8.06667,0.613052,1,1,157996.0,104173.0,1709,0.42830205,-7.0378284,279.06885,290.4165,80.976,305.62,19.9978,18.5772,51.0718,41.4701
1981-05-30 00:57:14,1,7.93333,-17.8833,-9.43333,1.67008,1,1,196061.0,115897.0,1709,0.42828423,-7.0376825,279.06079,290.42017,90.3179,301.624,20.835,13.917,56.8924,43.7414
1981-05-30 00:58:35,1,8.1,-18.7833,-5.93333,2.27822,1,1,151878.0,97712.3,1709,0.42827535,-7.0376101,279.05103,290.42212,74.8009,308.136,23.9113,13.7006,50.0731,40.1636
1981-05-30 00:59:56,1,6.81667,-20.2667,-4.4,0.779066,1,1,194281.0,99201.6,1709,0.42826641,-7.0375366,279.04126,290.42407,85.1748,303.811,24.066,8.18828,56.6335,40.4685
1981-05-30 01:01:17,1,7.96667,-19.9167,-3.18333,1.24967,1,1,136825.0,103609.0,1709,0.42824858,-7.0373898,279.0293,290.42773,78.0071,301.863,20.5529,16.5376,47.527,41.3577
1981-05-30 01:02:38,-1,nan,nan,nan,nan,1,4,nan,nan,1709,0.4282397,-7.0373154,279.01953,290.42969,nan,nan,nan,nan,nan,nan
1981-05-30 01:03:59,1,7.41667,-19.1333,5.66667,2.1945,1,1,114651.0,95445.9,1709,0.42823076,-7.0372419,279.00977,290.43164,75.5099,317.424,27.2913,3.57581,43.5058,39.6951
1981-05-30 01:05:20,1,0.633333,-21.4,0.0333333,0.829324,1,1,140393.0,95092.7,1709,0.42821294,-7.0370941,279.00171,290.4353,74.6201,325.368,23.6446,-6.42929,48.1428,39.6215
1981-05-30 01:06:41,1,-2.9,-20.15,3.86667,3.70289,1,1,120524.0,101251.0,1709,0.42820406,-7.0370197,278.99194,290.43726,81.6284,314.612,26.297,8.30964,44.6061,40.8845
1981-05-30 01:08:02,1,3.25,-21.6167,-2.7,1.24789,1,1,124806.0,104073.0,1709,0.42818624,-7.0368719,278.98413,290.44116,86.6648,313.683,25.4685,12.1647,45.3917,41.4503
1981-05-30 01:09:23,1,2.91429,-20.9286,-3.4,4.95152,1,1,137385.0,105768.0,1709,0.4281773,-7.0367985,278.97046,290.44312,80.0152,313.671,26.1566,-0.426466,47.6242,41.7864
1981-05-30 01:10:44,1,0.285714,-20.1571,5.9,2.16748,1,1,126548.0,94331.9,1709,0.42816842,-7.0367241,278.96045,290.44482,78.9907,316.609,26.7745,3.24074,45.7072,39.4627
1981-05-30 01:12:05,1,0.316667,-21.8667,0.65,0.568135,1,1,120563.0,97947.2,1709,0.42815059,-7.0365763,278.95264,290.44873,82.4774,319.478,24.3904,14.4162,44.6134,40.2118
1981-05-30 01:13:26,1,-0.25,-20.4167,-8.2,2.23022,1,1,115741.0,104101.0,1709,0.42814165,-7.0365028,278.94287,290.45068,78.8166,306.833,26.9848,11.4796,43.7121,41.4558
1981-05-30 01:14:47,1,5.45,-20.5667,-1.95,0.695621,1,1,114049.0,102391.0,1709,0.42813277,-7.0364285,278.93286,290.45239,80.99,316.654,24.8152,-2.4876,43.3915,41.1139
1981-05-30 01:16:08,1,0.9,-20.2143,4.82857,2.15482,1,1,124837.0,98923.5,1709,0.42811495,-7.0362806,278.92505,290.4563,71.8748,331.463,14.3222,-12.9535,45.3972,40.4118
1981-05-30 01:17:29,1,-8.01429,-14.1143,10.4143,6.28565,1,1,114198.0,98249.6,1709,0.42810601,-7.0362072,278.91138,290.45825,77.2044,312.294,25.9393,12.8685,43.4197,40.2739
1981-05-30 01:18:50,1,3.17143,-21.5857,-2.88571,1.60229,1,1,119115.0,98779.2,1709,0.42809713,-7.0361328,278.90161,290.46021,83.9395,311.344,23.3715,6.69127,44.3446,40.3823
1981-05-30 01:20:11,1,3.95714,-21.4429,-0.285714,0.759968,1,1,112832.0,101560.0,1709,0.42807931,-7.035985,278.89355,290.46387,83.4573,314.66,26.3391,5.83455,43.1592,40.9468
1981-05-30 01:21:32,1,3.07143,-21.8429,-0.114286,0.358569,1,1,124446.0,99781.3,1709,0.42807037,-7.0359116,278.88379,290.46582,85.0851,309.873,24.8607,0.00599962,45.3262,40.5866
1981-05-30 01:22:53,1,2.25,-21.1667,3.71667,2.22773,1,1,110472.0,105465.0,1709,0.42806149,-7.0358372,278.87402,290.46777,83.2268,318.286,12.1747,-21.533,42.7056,41.7266
1981-05-30 01:24:14,1,-0.942857,-11.6429,17.5714,2.19638,1,1,111945.0,109940.0,1709,0.42804366,-7.0356894,278.86597,290.47144,79.4011,318.807,-5.85994,-30.7068,42.9893,42.6026
1981-05-30 01:25:35,1,-2.81429,-2.67143,19.2143,2.91527,1,1,112338.0,106332.0,1709,0.42803472,-7.0356159,278.85229,290.47339,78.4852,319.101,1.13246,-28.2717,43.0648,41.8976
1981-05-30 01:26:56,1,-1.85714,-5.01429,19.0857,1.48393,1,1,146226.0,101782.0,1709,0.42802584,-7.0355415,278.84253,290.47534,73.1061,320.938,7.11515,-24.9155,49.1326,40.9915
1981-05-30 01:28:17,1,-0.566667,-9.03333,16.6833,1.68597,1,1,128249.0,116635.0,1709,0.42800802,-7.0353937,278.83447,290.479,89.2614,312.905,25.3393,-9.86332,46.0135,43.8805
1981-05-30 01:29:38,1,0.316667,-17.1833,7.63333,3.10564,1,1,148831.0,106268.0,1709,0.42799908,-7.0353203,278.82471,290.48096,86.6068,316.04,14.3392,-26.502,49.5684,41.885
1981-05-30 01:30:59,1,1.3,-12.4,14.8667,4.23504,1,1,102657.0,103649.0,1709,0.4279902,-7.0352459,278.81494,290.48291,82.7211,311.961,30.1599,4.70485,41.1672,41.3657
1981-05-30 01:32:20,1,2.13333,-21.8167,-6.1,0.94531,1,1,105248.0,100828.0,1709,0.42797238,-7.0350981,278.80322,290.48682,82.8963,323.33,27.5161,12.6404,41.6835,40.7988
1981-05-30 01:33:41,1,-4.53333,-19.85,-10.8667,3.74881,1,1,115031.0,101883.0,1709,0.4279635,-7.0350237,278.79321,290.48853,80.2267,314.19,23.719,21.2352,43.5778,41.0118
1981-05-30 01:35:02,1,1.01667,-22.3833,-6.65,1.89963,1,1,126083.0,104218.0,1709,0.42794567,-7.0348759,278.7854,290.49243,79.3163,326.283,24.6035,13.1081,45.6233,41.4792
1981-05-30 01:36:23,1,-4.91429,-20.7143,-5.35714,2.81004,1,1,127963.0,107071.0,1709,0.42793673,-7.0348024,278.77563,290.49438,82.8166,332.065,25.3138,5.69945,45.9621,42.0431
1981-05-30 01:37:44,1,-9.71429,-19.7429,0.4,1.68632,1,1,119247.0,112073.0,1709,0.42792785,-7.0347281,278.76563,290.49609,89.2224,329.541,24.3169,-4.13124,44.3691,43.014
1981-05-30 01:39:05,1,-8.26667,-19.8833,2.85,1.52952,1,1,136250.0,106075.0,1709,0.42791003,-7.0345802,278.75781,290.5,84.4448,315.36,27.262,-2.62136,47.4271,41.847
1981-05-30 01:40:26,1,1.48333,-20.2667,6.06667,3.72592,1,1,112598.0,111612.0,1709,0.42790109,-7.0345068,278.74414,290.50195,82.9181,309.331,28.3863,-7.07994,43.1144,42.9252
1981-05-30 01:41:47,1,4.24286,-20.9286,7.22857,3.14519,1,1,104689.0,104094.0,1709,0.42789221,-7.0344324,278.73438,290.50391,78.4145,307.244,15.6249,-20.897,41.5728,41.4544
1981-05-30 01:43:08,1,7.48333,-14.4667,15.5167,0.679461,1,1,104422.0,101817.0,1709,0.42787439,-7.0342846,278.72632,290.50757,82.4536,301.357,14.2613,-21.4916,41.5196,40.9986
1981-05-30 01:44:29,1,8.43333,-11.5167,16.7833,1.23085,1,1,105329.0,103122.0,1709,0.42786545,-7.0342112,278.71655,290.50952,79.5278,285.309,19.9376,0.33824,41.6995,41.2604
1981-05-30 01:45:50,1,17.4571,-12.2571,3.35714,4.32024,1,1,161424.0,127561.0,1709,0.42785656,-7.0341368,278.70679,290.51147,104.128,297.555,8.03617,-20.4858,51.6228,45.8898
1981-05-30 01:47:11,1,9.75,-8.43333,15.2167,3.12614,1,1,153792.0,111012.0,1709,0.42783874,-7.033989,278.69873,290.51514,81.8701,299.581,32.3446,-0.782992,50.3878,42.8098
1981-05-30 01:48:32,1,7.85,-15.9,6.81667,1.80478,1,1,104280.0,111621.0,1709,0.4278298,-7.0339155,278.68506,290.51709,82.2374,305.947,19.3168,18.3764,41.4914,42.927
1981-05-30 01:49:53,1,9.02857,-19.2429,-8.65714,1.31955,1,1,108489.0,102287.0,1709,0.42782092,-7.0338411,278.67529,290.51904,82.9614,317.11,11.2866,-22.7087,42.3205,41.0931
1981-05-30 01:51:14,1,-0.0833333,-10.45,18.8333,1.87246,1,1,123016.0,100520.0,1709,0.4278031,-7.0336933,278.66724,290.52271,79.6127,317.697,8.31853,-23.8921,45.0649,40.7366
1981-05-30 01:52:35,1,-1.58333,-11.1333,18.4667,1.29325,1,1,112095.0,96245.6,1709,0.42779416,-7.0336199,278.65747,290.52466,83.9402,314.057,14.7092,-16.5349,43.0181,39.861
1981-05-30 01:53:56,1,1.35714,-16.2429,15.6714,1.4466,1,1,101344.0,105907.0,1709,0.42778528,-7.0335455,278.64771,290.52661,81.5364,310.026,-0.299323,-25.3031,40.9031,41.8139
1981-05-30 01:55:17,1,5.33333,0.15,21.85,1.61572,1,1,102372.0,100394.0,1709,0.42776746,-7.0333977,278.63599,290.53052,79.7633,308.416,3.557,-24.7496,41.1101,40.7111
1981-05-30 01:56:38,1,4.62857,-4.0,21.0429,0.986439,1,1,107219.0,114692.0,1709,0.42775851,-7.0333242,278.62598,290.53223,84.166,310.709,-14.9155,-27.1204,42.0721,43.5135
1981-05-30 01:57:59,1,3.3,6.43333,20.2,0.618241,1,1,108628.0,106122.0,1709,0.42774963,-7.0332499,278.61621,290.53418,82.6129,313.216,-16.5137,-26.8742,42.3476,41.8562
1981-05-30 01:59:20,1,2.35,7.98333,19.3167,0.904771,1,1,117877.0,109095.0,1709,0.42773181,-7.033102,278.6084,290.53809,82.2541,316.806,-2.80619,-31.1335,44.1136,42.4386
1981-05-30 02:00:41,1,-0.733333,-1.31667,21.0833,0.698809,1,1,115542.0,114531.0,1709,0.42772287,-7.0330286,278.59863,290.54004,88.8367,327.86,-5.77295,-26.4567,43.6745,43.483
1981-05-30 02:02:02,1,-7.525,0.125,19.2125,1.73489,1,1,111770.0,117202.0,1709,0.42770511,-7.0328779,278.59058,290.5437,90.3797,320.946,-7.43283,-28.4479,42.9557,43.9871
1981-05-30 02:03:23,1,-5.02857,0.957143,20.1571,0.612789,1,1,115944.0,113484.0,1709,0.42769617,-7.0328026,278.5769,290.54565,92.1624,326.641,-3.44639,-27.5836,43.7504,43.2839
1981-05-30 02:04:44,1,-6.23333,-0.733333,20.3833,1.52179,1,1,114392.0,111432.0,1709,0.42768729,-7.0327282,278.56714,290.54761,86.9539,324.35,-6.17753,-27.2442,43.4566,42.8906
1981-05-30 02:06:05,1,-7.03333,1.86667,19.8833,0.57373,1,1,118205.0,109844.0,1709,0.42766947,-7.0325775,278.55908,290.55127,88.2183,321.768,-9.57043,-28.8584,44.1749,42.5839
1981-05-30 02:07:26,1,-4.98333,3.01667,20.0833,0.575181,1,1,116106.0,111083.0,1709,0.42766052,-7.0325022,278.54932,290.55322,85.8283,327.39,-13.7915,-25.9411,43.781,42.8235
1981-05-30 02:08:47,1,-9.73333,6.11667,17.4,0.252212,1,1,112214.0,104577.0,1709,0.42765164,-7.0324278,278.53955,290.55518,76.8074,321.984,-13.7379,-28.8158,43.0408,41.5505
1981-05-30 02:10:08,1,-2.54286,3.4,20.6286,3.70312,1,1,100307.0,117168.0,1709,0.42763382,-7.0322771,278.53174,290.55908,82.9814,313.831,-6.94545,-32.61,40.6934,43.9807
1981-05-30 02:11:29,1,0.5,1.56667,21.8167,0.675977,1,1,107305.0,105135.0,1709,0.42762494,-7.0322018,278.51782,290.56079,84.0278,312.148,-10.1355,-32.9871,42.0889,41.6611
1981-05-30 02:12:50,1,2.0,4.7,21.1143,1.28667,1,1,111949.0,115047.0,1709,0.427616,-7.0321274,278.50806,290.56274,88.2265,310.984,-14.6992,-29.5911,42.99,43.5808
1981-05-30 02:14:11,1,3.4,10.0667,18.55,1.1437,1,1,119627.0,108430.0,1709,0.42759818,-7.0319767,278.50024,290.56665,89.7437,309.577,-18.8667,-27.9149,44.4398,42.3089
1981-05-30 02:15:32,1,4.81429,12.9571,15.7143,0.702474,1,1,114108.0,113084.0,1709,0.4275893,-7.0319023,278.49048,290.5686,89.5923,309.804,-19.7333,-23.8987,43.4026,43.2074
1981-05-30 02:16:53,1,3.18571,14.7857,14.4571,0.24908,1,1,124368.0,107284.0,1709,0.42758036,-7.031827,278.48047,290.57031,90.2219,311.281,-21.3923,-24.2984,45.3118,42.0848
1981-05-30 02:18:14,1,3.01429,14.7,14.5143,0.369777,1,1,129469.0,109614.0,1709,0.42756259,-7.0316763,278.46875,290.57422,88.8022,312.649,-28.2954,-14.3296,46.2317,42.5393
1981-05-30 02:19:35,1,1.36667,18.1167,10.2167,1.71124,1,1,127001.0,107718.0,1709,0.42755365,-7.0316019,278.45898,290.57617,89.6355,314.165,-18.9303,-24.449,45.7889,42.1698
1981-05-30 02:20:56,1,1.11429,16.1286,12.5429,2.06398,1,1,105331.0,95362.9,1709,0.42754477,-7.0315266,278.44922,290.57813,85.506,314.417,-20.3375,-12.2836,41.6999,39.6778
1981-05-30 02:22:17,1,0.733333,19.0667,10.2167,1.45344,1,1,105132.0,93914.3,1709,0.42752695,-7.0313759,278.44116,290.58179,88.0423,315.82,-19.0983,-5.90412,41.6605,39.3753
1981-05-30 02:23:38,1,-2.21429,21.2429,6.47143,0.924276,1,1,97850.8,97056.9,1709,0.42751807,-7.0313015,278.4314,290.58374,84.6396,314.969,-21.5234,-11.3602,40.1921,40.0287
1981-05-30 02:24:59,1,0.916667,17.7667,12.7833,2.26532,1,1,104812.0,102157.0,1709,0.42750913,-7.0312262,278.42163,290.58569,87.8432,311.759,-20.5786,-11.6759,41.5971,41.067
1981-05-30 02:26:20,1,2.21429,17.3429,13.8143,1.26572,1,1,104735.0,93531.6,1709,0.42749131,-7.0310755,278.40967,290.58936,85.3338,313.083,-19.4819,-16.0171,41.5818,39.295
1981-05-30 02:27:41,1,3.32857,17.8,13.8143,0.583445,1,1,99695.0,93118.5,1709,0.42748243,-7.0310011,278.3999,290.59131,83.7806,314.354,-18.4797,-16.7348,40.569,39.2081
1981-05-30 02:29:02,1,1.28571,16.7143,15.5429,0.533758,1,1,87828.5,95448.0,1709,0.4274646,-7.0308504,278.39209,290.59521,77.1698,317.445,-15.1583,-13.1633,38.0781,39.6955
1981-05-30 02:30:23,1,1.08333,16.8333,17.6333,0.75,1,1,83083.4,89857.0,1709,0.42745572,-7.030776,278.38232,290.59717,75.1554,311.596,-12.8857,-13.2934,37.0352,38.5153
1981-05-30 02:31:44,1,3.65,16.8167,17.9333,0.888507,1,1,104057.0,102554.0,1709,0.42744678,-7.0307007,278.37231,290.59888,84.9714,315.624,-13.0351,-24.5303,41.447,41.1466
1981-05-30 02:33:05,1,-1.0,11.6,19.1333,0.474927,1,1,110912.0,95998.4,1709,0.42742896,-7.03055,278.3645,290.60278,86.2518,316.624,-8.39552,-23.6672,42.7905,39.8098
1981-05-30 02:34:26,1,-2.43333,6.28333,21.0333,0.32532,1,1,94871.9,103306.0,1709,0.42742008,-7.0304756,278.35083,290.60474,80.861,318.133,-6.16896,-29.7617,39.5755,41.2973
1981-05-30 02:35:47,1,-0.883333,3.68333,22.0833,2.27907,1,1,84990.1,100891.0,1709,0.42741114,-7.0304003,278.34106,290.60669,76.1682,315.842,-7.09549,-27.5166,37.4578,40.8117
1981-05-30 02:37:08,1,-1.28571,5.65714,22.7857,0.491976,1,1,105809.0,109152.0,1709,0.42739338,-7.0302496,278.33301,290.61035,86.2343,315.647,-2.19975,-32.0683,41.7945,42.4496
1981-05-30 02:38:29,1,-0.666667,0.483333,21.6167,0.362859,1,1,104672.0,101409.0,1709,0.42738444,-7.0301752,278.32324,290.6123,84.2928,316.26,-3.08704,-30.2773,41.5694,40.9163
1981-05-30 02:39:50,1,-0.771429,-1.21429,22.0429,0.568205,1,1,186593.0,122934.0,1709,0.42737556,-7.0300999,278.31348,290.61426,72.8998,307.839,-0.107679,-26.1753,55.5017,45.0499
1981-05-30 02:41:11,1,2.66667,14.4333,6.35,10.5532,1,1,120622.0,107752.0,1709,0.42735773,-7.0299492,278.30151,290.61792,82.9033,312.155,-24.5256,12.0009,44.6242,42.1764
1981-05-30 02:42:32,1,6.05714,18.9,-10.3571,1.02917,1,1,127926.0,100586.0,1709,0.42734879,-7.0298748,278.29175,290.61987,87.3,308.068,-21.8066,8.64027,45.9554,40.75
1981-05-30 02:43:53,1,6.1,19.4333,-8.98333,0.739557,1,1,150004.0,112300.0,1709,0.42733991,-7.0297995,278.28198,290.62183,91.4046,317.44,-25.6091,1.78729,49.7634,43.0575
1981-05-30 02:45:14,1,-0.557143,19.3571,-2.67143,1.8612,1,1,117612.0,100871.0,1709,0.42732209,-7.0296497,278.27417,290.62573,75.5609,321.004,-27.4137,-11.8067,44.064,40.8075
1981-05-30 02:47:56,1,-3.1,19.0857,3.6,1.95553,1,1,149981.0,119029.0,1709,0.42730427,-7.0294991,278.25439,290.62939,85.8921,317.142,-21.3225,-7.84001,49.7596,44.3286
1981-05-30 02:49:17,1,-1.22857,18.0857,5.22857,2.10703,1,1,123761.0,115792.0,1709,0.42728645,-7.0293493,278.24268,290.6333,87.0377,325.455,-14.9616,-19.2988,45.2012,43.7217
1981-05-30 02:50:38,1,-9.21429,5.34286,17.0286,1.90188,1,1,154685.0,108024.0,1709,0.42727757,-7.029274,278.23291,290.63525,87.3994,327.558,-20.0935,-19.4212,50.5337,42.2296
1981-05-30 02:51:59,1,-11.0571,10.4286,14.1714,1.32264,1,1,139119.0,108671.0,1709,0.42726862,-7.0291986,278.2229,290.63696,85.5502,326.204,-23.0,-19.0647,47.9238,42.356
1981-05-30 02:53:20,1,-8.48571,15.1286,11.3714,2.12324,1,1,152199.0,127987.0,1709,0.42725086,-7.0290489,278.21509,290.64087,89.4492,320.095,-23.4493,-5.77673,50.1261,45.9664
1981-05-30 02:54:41,1,-3.18571,13.6,3.47143,1.43342,1,1,153046.0,131912.0,1709,0.42724192,-7.0289736,278.20532,290.64282,89.5508,323.953,-19.4017,-11.8501,50.2653,46.6659
1981-05-30 02:56:02,1,-5.74286,11.5286,9.98571,1.78806,1,1,116901.0,97127.3,1709,0.4272241,-7.0288229,278.19727,290.64648,77.42,321.589,-14.3766,-12.7373,43.9305,40.0432
1981-05-30 02:57:23,1,-9.31429,17.6571,4.47143,2.62243,1,1,111085.0,105110.0,1709,0.42721522,-7.0287485,278.18359,290.64844,84.5057,325.262,-15.3855,-15.3433,42.8239,41.6562
1981-05-30 02:58:44,1,-10.5,13.5286,12.9286,1.23338,1,1,109234.0,100962.0,1709,0.42720628,-7.0286732,278.17383,290.65039,84.2785,328.111,-11.547,-21.4495,42.4655,40.8261
1981-05-30 03:00:05,1,-11.0143,9.12857,15.7429,1.46092,1,1,104194.0,105442.0,1709,0.42718852,-7.0285234,278.16602,290.6543,75.8772,327.148,-7.99846,-25.5061,41.4744,41.7219
1981-05-30 03:01:26,1,-8.97143,4.05714,19.6143,0.568205,1,1,104829.0,106823.0,1709,0.42717957,-7.0284472,278.15601,290.65601,77.2343,326.88,-7.45788,-25.6293,41.6004,41.9942
1981-05-30 03:02:47,1,-10.4286,4.45714,18.7,0.793854,1,1,115020.0,94882.2,1709,0.42717069,-7.0283709,278.14624,290.65796,76.1751,328.92,-2.92169,-26.9369,43.5756,39.5777
1981-05-30 03:04:08,1,-10.6286,1.57143,19.5571,1.04784,1,1,131202.0,94640.1,1709,0.42715287,-7.0282192,278.13452,290.66187,79.8413,328.283,-11.4905,-27.5832,46.5403,39.5272
1981-05-30 03:05:29,1,-10.5333,3.23333,18.9,0.681502,1,1,120097.0,97548.5,1709,0.42714399,-7.0281429,278.12476,290.66382,79.8234,335.222,0.663572,-20.0885,44.527,40.1299
1981-05-30 03:06:50,1,-13.4143,-2.45714,16.9,2.99918,1,1,115582.0,100333.0,1709,0.42713505,-7.0280666,278.11499,290.66577,77.886,338.654,2.02332,-23.2588,43.6821,40.6987
1981-05-30 03:08:11,1,-14.45,-6.55,14.6667,1.84044,1,1,150081.0,89364.2,1709,0.42711729,-7.027915,278.10693,290.66943,77.9471,329.455,5.22339,-24.3728,49.7761,38.4096
1981-05-30 03:09:32,1,-9.93333,-6.85,18.0167,2.50854,1,1,143594.0,102473.0,1709,0.42710835,-7.0278387,278.09717,290.67139,81.2904,329.395,3.37613,-25.2592,48.6884,41.1303